TimeEDT,TemperatureF,Dew PointF,Humidity,Sea Level PressureIn,VisibilityMPH,Wind Direction,Wind SpeedMPH,Gust SpeedMPH,PrecipitationIn,Events,Conditions,WindDirDegrees,DateUTC
12:53 AM,59.0,57.0,93,29.90,10.0,Calm,Calm,-,N/A,,Partly Cloudy,0,2013-09-23 04:53:00
1:53 AM,59.0,55.0,87,29.92,10.0,Calm,Calm,-,N/A,,Mostly Cloudy,0,2013-09-23 05:53:00
2:53 AM,57.0,54.0,89,29.92,10.0,Calm,Calm,-,N/A,,Mostly Cloudy,0,2013-09-23 06:53:00
3:53 AM,57.9,53.1,84,29.91,10.0,Calm,Calm,-,N/A,,Mostly Cloudy,0,2013-09-23 07:53:00
4:53 AM,57.0,54.0,89,29.94,10.0,Calm,Calm,-,N/A,,Scattered Clouds,0,2013-09-23 08:53:00
5:53 AM,55.9,54.0,93,29.95,10.0,NW,4.6,-,N/A,,Mostly Cloudy,320,2013-09-23 09:53:00
6:53 AM,55.9,54.0,93,29.98,9.0,Calm,Calm,-,N/A,,Mostly Cloudy,0,2013-09-23 10:53:00
7:53 AM,55.9,53.1,90,30.01,10.0,Calm,Calm,-,N/A,,Mostly Cloudy,0,2013-09-23 11:53:00
8:53 AM,59.0,51.1,75,30.04,10.0,NE,5.8,-,N/A,,Clear,40,2013-09-23 12:53:00
9:53 AM,61.0,48.9,64,30.05,10.0,ENE,5.8,-,N/A,,Overcast,60,2013-09-23 13:53:00
10:53 AM,63.0,48.9,60,30.05,10.0,NE,6.9,-,N/A,,Overcast,40,2013-09-23 14:53:00
11:53 AM,64.0,48.9,58,30.05,10.0,Variable,3.5,-,N/A,,Overcast,0,2013-09-23 15:53:00
12:53 PM,64.9,50.0,58,30.04,10.0,NE,4.6,-,N/A,,Overcast,50,2013-09-23 16:53:00
1:53 PM,69.1,53.1,57,30.02,10.0,Calm,Calm,-,N/A,,Clear,0,2013-09-23 17:53:00
2:53 PM,69.1,53.1,57,30.01,10.0,West,5.8,-,N/A,,Scattered Clouds,270,2013-09-23 18:53:00
3:53 PM,69.1,53.1,57,29.99,10.0,Calm,Calm,-,N/A,,Mostly Cloudy,0,2013-09-23 19:53:00
4:53 PM,71.1,55.0,57,29.99,10.0,SSW,4.6,-,N/A,,Mostly Cloudy,210,2013-09-23 20:53:00
5:53 PM,71.1,55.0,57,29.99,10.0,Calm,Calm,-,N/A,,Partly Cloudy,0,2013-09-23 21:53:00
6:53 PM,69.1,55.9,63,29.99,10.0,Calm,Calm,-,N/A,,Clear,0,2013-09-23 22:53:00
7:53 PM,64.9,55.9,73,29.99,10.0,Calm,Calm,-,N/A,,Clear,0,2013-09-23 23:53:00
8:53 PM,63.0,55.9,78,30.01,10.0,Calm,Calm,-,N/A,,Clear,0,2013-09-24 00:53:00
9:53 PM,61.0,55.9,83,30.02,10.0,Calm,Calm,-,N/A,,Clear,0,2013-09-24 01:53:00
10:53 PM,61.0,57.9,90,30.04,8.0,Calm,Calm,-,N/A,,Mostly Cloudy,0,2013-09-24 02:53:00
11:15 PM,60.8,59.0,94,30.08,2.0,Calm,Calm,-,N/A,,Overcast,0,2013-09-24 03:15:00
11:24 PM,60.8,59.0,94,30.08,8.0,Calm,Calm,-,N/A,,Overcast,0,2013-09-24 03:24:00
11:53 PM,59.0,57.0,93,30.04,8.0,ENE,3.5,-,N/A,,Overcast,70,2013-09-24 03:53:00